Visibility
15.0 15.0 15.0 15.0 15.0 15.0 15.0 15.0 15.0 15.0 9.6 0.1 0.0 0.1 0.9 15.0 15.0 15.0 15.0 15.0 15.0 15.0 15.0 15.0 15.0 15.0 15.0 15.0 15.0 15.0 15.0 15.0 15.0 15.0 15.0 15.0 15.0 15.0 15.0 15.0 15.0 15.0 15.0 15.0
15.0 15.0 15.0 15.0 15.0 15.0 15.0 0.1 14.7 15.0 15.0 0.9 0.9 0.1 0.6 15.0 15.0 15.0 15.0 15.0 15.0 15.0 15.0 15.0 15.0 15.0 13.5 15.0 15.0 0.1 4.1 15.0 10.0 15.0 15.0 15.0 15.0 15.0 15.0 15.0 15.0 15.0 15.0 15.0
15.0 15.0 15.0 15.0 15.0 15.0 15.0 7.5 8.5 0.5 15.0 9.6 13.2 15.0 15.0 8.4 15.0 15.0 15.0 8.5 15.0 15.0 15.0 15.0 15.0 15.0 14.8 15.0 15.0 13.1 7.1 6.0 7.9 15.0 15.0 15.0 15.0 15.0 15.0 15.0 14.8 13.6 15.0 15.0
15.0 15.0 15.0 15.0 15.0 15.0 15.0 15.0 15.0 13.2 2.1 11.1 15.0 15.0 15.0 15.0 15.0 15.0 15.0 3.2 0.0 15.0 15.0 15.0 15.0 15.0 15.0 15.0 8.8 9.0 0.1 0.0 0.0 0.1 0.6 15.0 15.0 15.0 15.0 15.0 15.0 15.0 15.0 15.0
15.0 15.0 15.0 15.0 15.0 14.9 15.0 13.4 0.5 14.9 4.6 15.0 15.0 15.0 15.0 15.0 15.0 15.0 15.0 15.0 15.0 15.0 3.2 15.0 15.0 14.4 0.8 13.5 14.0 15.0 4.5 0.2 0.1 0.2 0.0 0.4 0.3 13.1 12.7 0.1 0.0 1.5 15.0 15.0
15.0 15.0 15.0 15.0 15.0 15.0 10.8 11.8 15.0 15.0 14.8 14.8 13.5 15.0 15.0 15.0 15.0 15.0 15.0 15.0 15.0 2.8 15.0 15.0 15.0 10.8 14.2 15.0 15.0 15.0 0.3 4.4 0.9 1.8 0.1 0.6 1.3 15.0 7.3 12.1 9.0 8.6 0.8 15.0
15.0 15.0 15.0 15.0 15.0 14.4 15.0 15.0 15.0 7.8 14.5 14.6 15.0 15.0 15.0 15.0 15.0 4.8 15.0 6.0 3.9 2.8 15.0 13.5 11.8 13.6 13.6 15.0 15.0 15.0 8.6 1.6 9.2 6.9 10.9 0.1 4.7 15.0 15.0 11.1 14.9 15.0 15.0 15.0
15.0 15.0 15.0 15.0 15.0 14.5 15.0 15.0 15.0 13.5 6.1 15.0 15.0 15.0 15.0 15.0 15.0 15.0 15.0 15.0 15.0 9.5 7.7 0.0 0.1 1.1 15.0 15.0 15.0 15.0 15.0 15.0 4.0 15.0 15.0 12.9 4.8 15.0 15.0 15.0 15.0 15.0 15.0 15.0
15.0 15.0 15.0 15.0 14.5 14.7 14.1 15.0 13.6 9.9 1.1 6.9 15.0 15.0 15.0 15.0 15.0 15.0 15.0 15.0 15.0 4.9 0.0 0.0 0.1 2.0 15.0 15.0 15.0 15.0 15.0 15.0 15.0 8.7 11.8 15.0 15.0 15.0 15.0 15.0 15.0 15.0 15.0 15.0
15.0 15.0 15.0 15.0 15.0 15.0 15.0 15.0 14.3 5.0 0.2 15.0 15.0 11.0 15.0 15.0 11.6 3.9 10.7 15.0 13.5 9.9 0.0 0.1 0.2 4.6 15.0 15.0 15.0 15.0 15.0 9.4 15.0 14.8 1.0 13.0 15.0 15.0 15.0 15.0 15.0 15.0 15.0 15.0
15.0 15.0 15.0 15.0 15.0 15.0 11.7 15.0 15.0 8.4 2.3 5.3 11.5 15.0 15.0 15.0 15.0 15.0 14.8 0.1 0.0 0.0 0.1 0.1 2.7 15.0 15.0 15.0 15.0 15.0 15.0 13.0 3.2 3.1 0.8 5.0 15.0 15.0 15.0 14.8 15.0 15.0 15.0 15.0
15.0 15.0 15.0 14.7 14.9 14.9 9.0 1.1 15.0 15.0 0.3 4.0 15.0 15.0 15.0 15.0 15.0 5.9 0.5 0.3 0.2 0.2 0.6 15.0 15.0 15.0 15.0 15.0 15.0 15.0 15.0 15.0 13.4 15.0 15.0 15.0 15.0 15.0 15.0 15.0 15.0 15.0 15.0 2.2
15.0 15.0 15.0 15.0 15.0 14.5 9.3 12.0 13.9 4.7 0.0 1.1 2.1 13.9 15.0 15.0 15.0 15.0 0.0 1.9 8.6 7.8 10.4 15.0 15.0 15.0 15.0 15.0 15.0 15.0 15.0 15.0 15.0 15.0 15.0 15.0 15.0 15.0 15.0 15.0 15.0 15.0 15.0 15.0
15.0 15.0 15.0 15.0 15.0 13.2 13.8 5.8 11.5 2.6 0.3 0.1 10.6 15.0 15.0 15.0 13.9 9.1 4.6 2.4 15.0 15.0 10.8 11.2 15.0 15.0 15.0 15.0 15.0 15.0 15.0 15.0 15.0 15.0 15.0 15.0 15.0 15.0 15.0 15.0 15.0 15.0 15.0 10.1
15.0 15.0 9.6 7.6 4.6 11.5 9.2 14.7 10.6 15.0 10.5 2.7 3.8 1.7 2.6 10.1 7.5 6.4 3.1 4.6 10.4 14.4 13.7 15.0 9.5 15.0 15.0 15.0 15.0 15.0 15.0 15.0 15.0 15.0 15.0 15.0 15.0 15.0 15.0 15.0 15.0 15.0 0.6 0.3
14.0 4.4 5.5 3.5 5.6 4.5 0.2 0.0 6.5 14.9 7.3 0.6 0.3 2.3 9.3 12.3 2.7 4.8 4.9 6.8 4.9 14.6 15.0 15.0 15.0 15.0 15.0 15.0 12.2 15.0 15.0 15.0 15.0 15.0 15.0 15.0 15.0 15.0 15.0 15.0 15.0 15.0 15.0 15.0
4.5 12.0 10.7 3.9 13.4 9.6 0.0 0.9 1.9 5.6 0.6 0.0 0.1 0.1 15.0 15.0 15.0 15.0 15.0 15.0 15.0 15.0 15.0 15.0 15.0 15.0 15.0 13.4 8.5 15.0 15.0 15.0 15.0 15.0 15.0 15.0 15.0 15.0 15.0 15.0 15.0 15.0 15.0 15.0
15.0 15.0 15.0 15.0 14.5 15.0 15.0 15.0 14.6 14.7 8.2 15.0 15.0 13.9 15.0 15.0 15.0 9.1 15.0 15.0 15.0 15.0 15.0 15.0 15.0 15.0 15.0 12.6 15.0 15.0 15.0 15.0 15.0 15.0 15.0 15.0 15.0 15.0 15.0 15.0 15.0 15.0 15.0 15.0
15.0 15.0 15.0 15.0 15.0 15.0 15.0 15.0 15.0 15.0 15.0 15.0 15.0 15.0 15.0 15.0 11.6 6.0 15.0 15.0 11.8 15.0 14.8 15.0 15.0 15.0 13.6 15.0 15.0 15.0 15.0 15.0 15.0 15.0 15.0 15.0 13.0 15.0 15.0 15.0 15.0 15.0 15.0 15.0
15.0 15.0 15.0 14.6 15.0 15.0 15.0 15.0 15.0 15.0 15.0 15.0 15.0 15.0 0.5 15.0 15.0 11.6 15.0 14.9 9.3 2.0 2.9 15.0 14.9 15.0 15.0 15.0 15.0 15.0 15.0 15.0 15.0 15.0 7.4 12.6 15.0 15.0 15.0 15.0 15.0 15.0 15.0 15.0
15.0 15.0 15.0 15.0 15.0 15.0 15.0 15.0 15.0 15.0 15.0 15.0 15.0 15.0 6.2 15.0 9.1 15.0 15.0 12.3 15.0 8.4 15.0 15.0 15.0 10.3 15.0 15.0 15.0 15.0 15.0 15.0 13.5 15.0 12.0 15.0 15.0 15.0 15.0 15.0 15.0 15.0 15.0 15.0
15.0 15.0 15.0 15.0 15.0 15.0 15.0 8.6 15.0 12.0 15.0 15.0 15.0 15.0 15.0 6.5 15.0 15.0 15.0 15.0 14.7 15.0 15.0 12.1 9.6 15.0 15.0 15.0 15.0 15.0 15.0 15.0 15.0 15.0 15.0 15.0 15.0 15.0 15.0 15.0 15.0 15.0 15.0 15.0
15.0 15.0 15.0 14.2 15.0 13.0 5.3 5.8 15.0 9.4 15.0 12.6 15.0 0.1 12.8 15.0 15.0 5.2 15.0 3.2 13.4 0.4 0.3 0.2 11.8 0.1 15.0 15.0 15.0 15.0 15.0 15.0 15.0 15.0 15.0 15.0 15.0 15.0 15.0 15.0 15.0 15.0 15.0 15.0
13.5 0.8 0.2 7.1 3.0 12.7 15.0 9.8 0.3 0.0 0.0 0.0 0.0 0.1 0.1 0.1 0.1 7.9 0.1 0.8 5.1 0.3 5.5 11.1 3.7 0.4 15.0 15.0 15.0 15.0 15.0 15.0 15.0 15.0 15.0 15.0 15.0 14.5 15.0 15.0 13.5 15.0 15.0 5.6
14.9 0.2 0.3 3.7 0.2 0.1 0.2 0.2 0.1 12.6 0.6 0.0 0.0 0.0 0.0 0.1 0.1 0.1 5.6 1.8 2.5 15.0 15.0 11.8 15.0 15.0 15.0 15.0 15.0 15.0 14.3 8.3 7.7 9.2 9.5 8.5 14.3 15.0 9.2 15.0 7.3 11.9 5.3 5.4
0.0 0.0 2.2 15.0 11.3 0.1 10.6 13.9 2.3 12.7 1.1 9.9 15.0 9.8 10.3 12.8 15.0 15.0 15.0 15.0 15.0 15.0 13.1 0.4 15.0 15.0 15.0 15.0 15.0 15.0 15.0 15.0 15.0 15.0 14.9 11.3 15.0 15.0 11.2 15.0 5.2 4.1 12.6 5.0
5.4 1.0 1.5 1.6 12.9 0.5 13.3 0.9 6.7 15.0 15.0 15.0 15.0 15.0 15.0 15.0 15.0 15.0 15.0 10.4 15.0 0.1 0.2 0.7 15.0 15.0 2.1 15.0 15.0 15.0 15.0 15.0 15.0 15.0 15.0 15.0 15.0 15.0 14.0 2.4 1.7 3.5 3.5 2.6